DW2659 Weather Reports


time (UTC)temp
F
wind
direction
speed
knots
gust
knots
rain 1hr
in
rain 24hr
in
rain mn
in
humidity
%
barometer
mb
20260504231904 73 270 0.0 1.7 0.00 0.00 0.00 42 1012.7
20260504230903 74 259 0.9 2.6 0.00 0.00 0.00 37 1012.8
20260504230404 74 243 1.7 2.6 0.00 0.00 0.00 35 1012.8
20260504225903 75 199 1.7 4.3 0.00 0.00 0.00 34 1012.7
20260504225403 75 156 1.7 6.1 0.00 0.00 0.00 33 1012.8
20260504224904 75 185 2.6 5.2 0.00 0.00 0.00 33 1012.8
20260504224403 75 251 3.5 7.0 0.00 0.00 0.00 33 1012.9
20260504223903 75 253 4.3 7.0 0.00 0.00 0.00 33 1012.9
20260504223404 76 225 4.3 10.4 0.00 0.00 0.00 36 1012.9
20260504222903 76 215 2.6 7.8 0.00 0.00 0.00 37 1012.6
20260504222403 76 261 2.6 8.7 0.00 0.00 0.00 37 1012.6
20260504221904 76 188 2.6 7.8 0.00 0.00 0.00 37 1012.6
20260504221403 76 207 1.7 6.1 0.00 0.00 0.00 38 1012.6
20260504220903 76 251 1.7 6.1 0.00 0.00 0.00 38 1012.6
20260504220404 76 187 3.5 7.0 0.00 0.00 0.00 36 1012.6
20260504215903 77 225 4.3 7.8 0.00 0.00 0.00 37 1012.6
20260504215403 77 186 4.3 8.7 0.00 0.00 0.00 35 1012.6
20260504214904 78 234 4.3 7.0 0.00 0.00 0.00 36 1012.5
20260504214403 78 153 2.6 7.0 0.00 0.00 0.00 36 1012.5
20260504213903 78 100 0.9 5.2 0.00 0.00 0.00 35 1012.5
20260504213404 78 241 1.7 6.1 0.00 0.00 0.00 34 1012.7
20260504212903 78 241 2.6 7.8 0.00 0.00 0.00 34 1012.7
20260504212403 78 227 2.6 7.8 0.00 0.00 0.00 33 1012.7
20260504205903 77 250 3.5 7.0 0.00 0.00 0.00 34 1012.8
20260504205403 77 164 1.7 4.3 0.00 0.00 0.00 36 1012.8
20260504204904 77 210 2.6 6.1 0.00 0.00 0.00 35 1012.8
20260504204406 78 249 2.6 6.1 0.00 0.00 0.00 37 1012.8
20260504203903 77 238 1.7 6.1 0.00 0.00 0.00 38 1012.8
20260504203403 77 260 3.5 6.1 0.00 0.00 0.00 37 1013.2
20260504202904 77 256 2.6 5.2 0.00 0.00 0.00 36 1013.2
20260504202403 77 267 0.9 2.6 0.00 0.00 0.00 37 1013.2
20260504201404 77 244 4.3 10.4 0.00 0.00 0.00 37 1013.5
20260504200903 78 196 4.3 7.8 0.00 0.00 0.00 33 1013.5
20260504200403 78 227 3.5 6.1 0.00 0.00 0.00 38 1013.5
20260504195403 77 214 0.9 2.6 0.00 0.00 0.00 41 1013.5
20260504194903 77 231 2.6 5.2 0.00 0.00 0.00 39 1013.5
20260504193903 77 209 2.6 6.1 0.00 0.00 0.00 38 1013.6
20260504193403 77 238 2.6 6.1 0.00 0.00 0.00 37 1014.0
20260504192904 77 247 2.6 7.0 0.00 0.00 0.00 39 1014.0
20260504192403 77 269 1.7 6.1 0.00 0.00 0.00 41 1014.0
20260504191904 77 244 4.3 8.7 0.00 0.00 0.00 38 1014.0
20260504191405 78 285 2.6 6.1 0.00 0.00 0.00 37 1014.4
20260504190903 77 267 2.6 7.0 0.00 0.00 0.00 40 1014.4
20260504190403 77 245 2.6 7.0 0.00 0.00 0.00 39 1014.4
20260504185904 77 181 4.3 7.0 0.00 0.00 0.00 38 1014.4
20260504185403 77 219 2.6 6.1 0.00 0.00 0.00 40 1014.4
20260504184903 77 250 3.5 6.1 0.00 0.00 0.00 39 1014.4
20260504184405 77 30 1.7 6.1 0.00 0.00 0.00 40 1014.5
20260504183903 76 244 1.7 6.1 0.00 0.00 0.00 43 1014.4
20260504183403 76 260 2.6 7.0 0.00 0.00 0.00 40 1014.4
20260504182904 77 224 0.9 7.0 0.00 0.00 0.00 40 1014.6
20260504182403 77 216 3.5 7.0 0.00 0.00 0.00 40 1014.7
20260504181903 77 209 2.6 5.2 0.00 0.00 0.00 38 1014.7
20260504181404 77 217 1.7 6.1 0.00 0.00 0.00 43 1014.8
20260504180904 76 104 4.3 10.4 0.00 0.00 0.00 41 1014.8
20260504175904 76 153 0.9 4.3 0.00 0.00 0.00 42 1015.1
20260504175403 75 175 2.6 4.3 0.00 0.00 0.00 41 1015.1
20260504174405 74 198 1.7 6.1 0.00 0.00 0.00 41 1015.4
20260504173903 75 239 2.6 5.2 0.00 0.00 0.00 42 1015.4
20260504173403 74 230 2.6 5.2 0.00 0.00 0.00 42 1015.4
20260504172904 74 150 1.7 7.0 0.00 0.00 0.00 42 1016.3
20260504172403 74 242 3.5 7.8 0.00 0.00 0.00 43 1016.3
20260504171405 74 230 2.6 6.1 0.00 0.00 0.00 40 1016.3
20260504170903 74 267 1.7 6.1 0.00 0.00 0.00 43 1016.3
20260504170403 75 266 2.6 7.0 0.00 0.00 0.00 41 1016.3
20260504160403 70 253 0.9 2.6 0.00 0.00 0.00 43 1016.4
20260504150903 68 96 1.7 4.3 0.00 0.00 0.00 48 1017.2
20260504150404 67 160 0.9 4.3 0.00 0.00 0.00 48 1017.2
20260504140903 62 106 0.9 4.3 0.00 0.00 0.00 54 1017.6
20260504140403 61 186 1.7 4.3 0.00 0.00 0.00 55 1017.6
20260504130405 55 141 1.7 2.6 0.00 0.00 0.00 63 1017.8
20260504110405 45 247 0.0 1.7 0.00 0.00 0.00 81 1017.1
20260504100405 45 247 0.0 0.0 0.00 0.00 0.00 81 1017.1
20260504081904 44 180 0.0 0.9 0.00 0.00 0.00 80 1016.7
20260504081405 45 180 0.0 0.0 0.00 0.00 0.00 80 1016.6
20260504070404 46 180 0.0 0.0 0.00 0.00 0.00 75 1017.0
20260504050403 56 180 0.0 0.0 0.00 0.00 0.00 55 1017.4
20260504045908 56 180 0.9 0.9 0.00 0.00 0.00 53 1017.5
20260504045403 57 252 0.9 1.7 0.00 0.00 0.00 52 1017.5
20260504044903 57 251 1.7 2.6 0.00 0.00 0.00 50 1017.5
20260504044403 57 264 0.0 2.6 0.00 0.00 0.00 51 1017.5
20260504043904 58 246 0.9 2.6 0.00 0.00 0.00 50 1017.5
20260504042903 58 250 1.7 2.6 0.00 0.00 0.00 48 1017.5
20260504042403 58 251 1.7 2.6 0.00 0.00 0.00 47 1017.5
20260504041402 58 260 1.7 2.6 0.00 0.00 0.00 47 1017.4
20260504040903 58 265 0.9 2.6 0.00 0.00 0.00 49 1017.4
20260504040403 58 250 1.7 2.6 0.00 0.00 0.00 50 1017.4
20260504034903 58 236 2.6 5.2 0.00 0.00 0.00 49 1017.4
20260504034403 58 232 1.7 2.6 0.00 0.00 0.00 49 1017.4
20260504033904 58 238 1.7 5.2 0.00 0.00 0.00 50 1017.2
20260504033402 58 252 0.9 2.6 0.00 0.00 0.00 51 1017.2
20260504032903 58 256 1.7 2.6 0.00 0.00 0.00 51 1017.0
20260504032404 58 253 1.7 2.6 0.00 0.00 0.00 50 1017.0
20260504031903 58 291 0.0 1.7 0.00 0.00 0.00 50 1017.0
20260504031403 58 231 1.7 2.6 0.00 0.00 0.00 50 1017.0
20260504030903 59 260 0.9 2.6 0.00 0.00 0.00 50 1016.9
20260504030403 59 256 1.7 6.1 0.00 0.00 0.00 49 1016.9
20260504025903 59 201 1.7 4.3 0.00 0.00 0.00 50 1017.0
20260504025403 59 248 1.7 2.6 0.00 0.00 0.00 49 1017.0
20260504024903 59 250 1.7 2.6 0.00 0.00 0.00 50 1017.0
20260504024403 59 229 0.9 1.7 0.00 0.00 0.00 51 1017.0
20260504023904 59 225 0.9 2.6 0.00 0.00 0.00 50 1017.0
20260504022903 59 243 0.9 2.6 0.00 0.00 0.00 50 1017.1
20260504022404 58 236 1.7 2.6 0.00 0.00 0.00 51 1017.1
20260504021903 57 252 1.7 2.6 0.00 0.00 0.00 54 1017.1
20260504020904 52 252 0.9 2.6 0.00 0.00 0.00 68 1016.9
20260504020402 52 267 0.0 0.9 0.00 0.00 0.00 68 1016.9
20260504015903 52 267 0.0 0.0 0.00 0.00 0.00 67 1016.7
20260504015403 52 267 0.0 0.0 0.00 0.00 0.00 66 1016.7
20260504014903 52 267 0.0 0.0 0.00 0.00 0.00 65 1016.7
20260504014402 53 267 0.0 0.0 0.00 0.00 0.00 64 1016.6
20260504013904 53 267 0.0 0.0 0.00 0.00 0.00 64 1016.6
20260504013403 53 267 0.0 0.0 0.00 0.00 0.00 64 1016.6
20260504012902 53 267 0.0 0.0 0.00 0.00 0.00 63 1016.6
20260504012404 54 267 0.0 0.0 0.00 0.00 0.00 63 1016.6
20260504011903 54 267 0.0 0.0 0.00 0.00 0.00 62 1016.6
20260504011403 54 267 0.0 0.0 0.00 0.00 0.00 61 1016.6
20260504010903 55 267 0.0 0.0 0.00 0.00 0.00 60 1016.6
20260504010403 55 267 0.0 0.0 0.00 0.00 0.00 60 1016.6
20260504005903 55 267 0.0 0.0 0.00 0.00 0.00 59 1016.3
20260504005404 56 267 0.0 0.0 0.00 0.00 0.00 58 1016.3
20260504004903 56 267 0.0 0.0 0.00 0.00 0.00 57 1016.3
20260504004402 57 267 0.0 0.0 0.00 0.00 0.00 57 1016.3
20260504003904 57 267 0.0 0.0 0.00 0.00 0.00 56 1016.3
20260504003403 58 267 0.0 0.0 0.00 0.00 0.00 55 1016.3
20260504002903 58 267 0.0 0.0 0.00 0.00 0.00 55 1016.2
20260504002404 58 267 0.0 0.0 0.00 0.00 0.00 55 1016.2
20260504001903 59 267 0.0 0.0 0.00 0.00 0.00 54 1016.2
20260504001403 59 267 0.0 0.0 0.00 0.00 0.00 53 1016.2
20260504000904 60 267 0.0 0.0 0.00 0.00 0.00 53 1016.2
20260504000403 60 267 0.0 0.0 0.00 0.00 0.00 53 1016.2
20260503235903 60 267 0.0 0.9 0.00 0.00 0.00 52 1016.2
20260503235404 60 267 0.0 0.9 0.00 0.00 0.00 51 1016.3
20260503234903 60 267 0.9 1.7 0.00 0.00 0.00 48 1016.3
20260503234403 60 267 0.0 1.7 0.00 0.00 0.00 51 1016.2
20260503233904 61 269 0.0 1.7 0.00 0.00 0.00 47 1016.2
20260503233402 61 241 0.9 2.6 0.00 0.00 0.00 46 1016.2
20260503232903 61 249 0.9 1.7 0.00 0.00 0.00 51 1016.2
20260503232404 62 302 0.0 1.7 0.00 0.00 0.00 50 1016.3